Content
SEND FEEDBACK

Daily
Averages
Monthly
Summary
United States of America

STATEN ISLAND, NEW YORK


Home > North America > United States > New York
Elevation: 46 meters     Latitude: 40 35N     Longitude: 074 09W

WEATHER
 
SELECT A DAY
Number of Records: 193,948;   Date Range: 1/1/95 - 12/19/14
 
SHARE

PRINT THIS DATA

[ ← Previous Day ]
WEATHER ALMANAC - 8 MARCH, 2013
[ Next Day → ]
[ °F ]   °C
Weather ElementAverageHighLow
Temperature1.2 °C5 °C (6:51 pm)-1 °C (8:16 am)
Dewpoint-0.6 °C1 °C (3:07 pm)-1.7 °C (10:51 pm)
Humidity88.5 %100 % (8:16 am)65 % (6:51 pm)
Barometer1017.9 hPa1022.7 hPa (11:51 pm)1016.3 hPa (3:51 am)
Wind Speed19.8 km/h29.6 km/h (8:51 am)
Wind Gust37 km/h (8:51 am)
Weather ElementAverage
Visibility5.1 km
Wind DirectionNNW (329.8 °)

Weather ElementTotal
Precipitation38.35 mm
Heating Degree Days16.3 (Base 18.3)
Averaged from 43 records on 8 March, 2013
WEATHER CONDITIONS BREAKOUT
WIND DIRECTION BREAKOUT
WEATHER BY HOUR - 8 MARCH, 2013
[ °F ]   °C
Local TimeTemperatureDewpointHumidityBarometerVisibilityWind DirectionWind SpeedGust SpeedPrecipitationEventsConditions
12:51 AM0.6 °C0 °C96 %1017.9 hPa2.4 kmNNW (330°)9.3 km/h1.02 mmSnowLight Snow
1:51 AM0.6 °C0 °C96 %1017.6 hPa2.4 kmNNW (330°)16.7 km/h1.02 mmSnowLight Snow
1:58 AM1 °C-1 °C87 %1017.6 hPa3.2 kmNNW (330°)16.7 km/h0 mmSnowLight Snow
2:51 AM0.6 °C-0.6 °C92 %1016.9 hPa3.2 kmNNW (330°)16.7 km/h0 mmSnowLight Snow
3:51 AM0.6 °C-0.6 °C92 %1016.3 hPa3.2 kmNNW (340°)18.5 km/h0.25 mmSnowLight Snow
3:58 AM1 °C-1 °C87 %1016.6 hPa6.4 kmNNW (340°)16.7 km/h0 mmSnowLight Snow
4:12 AM1 °C-1 °C87 %1016.6 hPa2.4 kmNNW (340°)24.1 km/h31.5 km/h0 mmSnowLight Snow
4:51 AM1 °C-1 °C87 %1016.6 hPa3.2 kmNNW (340°)16.7 km/hSnowLight Snow
5:39 AM0 °C-1 °C93 %1016.6 hPa2.4 kmNNW (340°)18.5 km/h31.5 km/h0.51 mmSnowLight Snow
5:51 AM0 °C-0.6 °C96 %1016.3 hPa1.6 kmNNW (340°)22.2 km/h0.76 mmSnowLight Snow
6:51 AM0 °C-1.1 °C92 %1016.6 hPa1.3 kmNorth (350°)24.1 km/h1.52 mmSnowLight Snow
7:51 AM0 °C-1.1 °C92 %1016.9 hPa0.8 kmNNW (330°)25.9 km/h1.52 mmFog-SnowSnow
8:16 AM-1 °C-1 °C100 %1016.9 hPa1.3 kmNNW (340°)25.9 km/h0.51 mmSnowLight Snow
8:23 AM0 °C-1 °C93 %1016.9 hPa0.8 kmNNW (340°)24.1 km/h35.2 km/h0.76 mmFog-SnowSnow
8:51 AM0 °C-1.1 °C92 %1017.3 hPa0.8 kmNNW (340°)29.6 km/h37 km/h1.78 mmFog-SnowSnow
9:03 AM0 °C-1 °C93 %1017.3 hPa0.8 kmNNW (340°)24.1 km/h0.51 mmFog-SnowSnow
9:51 AM0 °C-1.1 °C92 %1017.6 hPa0.8 kmNNW (340°)22.2 km/h37 km/h2.79 mmFog-SnowSnow
10:10 AM0 °C-1 °C93 %1017.6 hPa0.3 kmNNW (340°)18.5 km/h37 km/h1.52 mmFog-SnowHeavy Snow
10:31 AM0 °C-1 °C93 %1017.6 hPa0.3 kmNNW (340°)24.1 km/h3.56 mmSnowHeavy Snow
10:41 AM0 °C-1 °C93 %1017.6 hPa0.8 kmNNW (330°)20.4 km/h4.06 mmSnowSnow
10:51 AM0 °C-1 °C93 %1017.6 hPa0.8 kmNNW (330°)22.2 km/hSnowSnow
11:20 AM0 °C-1 °C93 %1017.6 hPa0.3 kmNNW (330°)18.5 km/h2.03 mmSnowHeavy Snow
11:30 AM0 °C-1 °C93 %1017.9 hPa0.8 kmNNW (340°)16.7 km/h2.54 mmSnowSnow
11:51 AM0 °C-0.6 °C96 %1017.6 hPa1.3 kmNNW (330°)22.2 km/h3.3 mmSnowLight Snow
12:01 PM0 °C-1 °C93 %1017.9 hPa1.3 kmNW (320°)14.8 km/h35.2 km/h0.25 mmSnowLight Snow
12:20 PM1 °C0 °C93 %1017.6 hPa1.3 kmNW (320°)13 km/h1.02 mmSnowLight Snow
12:51 PM0.6 °C0 °C96 %1017.6 hPa1.6 kmNW (320°)14.8 km/h1.52 mmSnowLight Snow
1:11 PM1 °C0 °C93 %1017.6 hPa1.6 kmNNW (330°)16.7 km/h0.25 mmSnowLight Snow
1:48 PM1 °C0 °C93 %1017.3 hPa2.9 kmNNW (340°)11.1 km/h1.27 mmSnowLight Snow
1:51 PM1.1 °C0 °C92 %1017.3 hPa2.9 kmNNW (340°)16.7 km/h1.52 mmSnowLight Snow
2:14 PM1 °C0 °C93 %1017.6 hPa2.9 kmNorth (10°)11.1 km/h0.51 mmRain-SnowLight Snow
2:51 PM1.1 °C0.6 °C96 %1017.6 hPa2.9 kmNW (320°)13 km/h1.27 mmRain-SnowLight Snow
3:07 PM2 °C1 °C93 %1017.6 hPa4 kmNNW (330°)16.7 km/h0.25 mmRain-SnowLight Rain
3:20 PM2 °C1 °C93 %1017.6 hPa12.9 kmNNW (340°)13 km/h0.25 mmRain-SnowLight Rain
3:51 PM2.8 °C0.6 °C86 %1017.9 hPa16.1 kmNorth (350°)18.5 km/h0.25 mmRain-SnowLight Rain
4:51 PM3.9 °C-0.6 °C73 %1018.6 hPa16.1 kmNorth (360°)29.6 km/h0 mmOvercast
5:51 PM4.4 °C0.6 °C77 %1019.6 hPa16.1 kmNorth (360°)22.2 km/h33.3 km/hMostly Cloudy
6:51 PM5 °C-1.1 °C65 %1021 hPa16.1 kmNorth (360°)29.6 km/hMostly Cloudy
7:51 PM5 °C-0.6 °C67 %1021.3 hPa16.1 kmNNW (330°)18.5 km/hMostly Cloudy
8:51 PM4.4 °C0 °C73 %1022.4 hPa16.1 kmNNW (340°)24.1 km/hMostly Cloudy
9:51 PM4.4 °C-0.6 °C70 %1022.4 hPa16.1 kmNNW (340°)27.8 km/hMostly Cloudy
10:51 PM3.9 °C-1.7 °C67 %1022.4 hPa16.1 kmNorth (350°)25.9 km/h33.3 km/hScattered Clouds
11:51 PM3.3 °C-1.7 °C70 %1022.7 hPa16.1 kmNNW (340°)18.5 km/hScattered Clouds
Hourly data recorded from KEWR, located 0 kilometers away from Staten Island, New York







STORIES FROM OUR PARTNERS